Covington, KY

7:41 PM EST on December 05, 2019 (GMT -0500)
Cincinnati-Northern KY International

Weather History for KCVG - October, 2019

Change the Weather History Date:

Thursday, October 3, 2019

  Actual Average Record
Temperature  
Mean Temperature 80 °F 60 °F  
Max Temperature 93 °F 71 °F 89 °F (1919)
Min Temperature 66 °F 50 °F 27 °F (1974)
Degree Days  
Heating Degree Days 0 6  
Month to date heating degree days 0 18  
Since 1 July heating degree days 0 76  
Cooling Degree Days 15 1  
Month to date cooling degree days 47 5  
Year to date cooling degree days 1489 1110  
Growing Degree Days 30 (Base 50)    
Moisture  
Dew Point 62 °F    
Average Humidity 58    
Maximum Humidity 78    
Minimum Humidity 33    
Precipitation  
Precipitation 0.00 in 0.10 in 1.93 in (1907)
Month to date precipitation 0.00 0.29  
Year to date precipitation 42.42 32.71  
Snow  
Snow 0.00 in 0.00 in 0.00 in ()
Month to date snowfall 0.0 0.0  
Since 1 July snowfall 0.0 0.0  
Since 1 September snowfall 0.0 0.0  
Snow Depth 0.00 in    
Sea Level Pressure  
Sea Level Pressure 29.98 in    
Wind  
Wind Speed 7 mph ()    
Max Wind Speed 21 mph    
Max Gust Speed 27 mph    
Visibility 10.0 miles    
Events      
T = Trace of Precipitation, MM = Missing Value Source: Averaged Metar Reports

Daily Weather History Graph

Daily Weather History Graph

Search for Another Location

Airport or City:

Astronomy

Oct. 03, 2019 Rise Set
Actual Time 7:36 AM EDT 7:18 PM EDT
Civil Twilight 7:09 AM EDT 7:45 PM EDT
Nautical Twilight 6:38 AM EDT 8:15 PM EDT
Astronomical Twilight 6:07 AM EDT 8:47 PM EDT
Moon 1:04 PM EDT (10/3) 10:59 PM EDT (10/3)
Length of Visible Light 12h 35m
Length of Day
11h 42m
Waxing Crescent, 29% of the Moon is Illuminated
Oct 3
Waxing Crescent
Oct 5
First Quarter
Oct 13
Full
Oct 21
Last Quarter
Oct 27
New

Hourly Weather History & Observations

Time (EDT) Temp. Heat Index Dew Point Humidity Pressure Visibility Wind Dir Wind Speed Gust Speed Precip Events Conditions
12:52 AM 75.9 °F - 62.1 °F 62% 29.92 in 10.0 mi Calm Calm - N/A   Clear
1:52 AM 73.9 °F - 62.1 °F 66% 29.93 in 10.0 mi SW 3.5 mph - N/A   Clear
2:52 AM 73.0 °F - 62.1 °F 68% 29.93 in 10.0 mi SSW 6.9 mph - N/A   Clear
3:52 AM 72.0 °F - 62.1 °F 71% 29.93 in 10.0 mi SSW 6.9 mph - N/A   Clear
4:52 AM 71.1 °F - 62.1 °F 73% 29.93 in 10.0 mi SSW 3.5 mph - N/A   Clear
5:52 AM 69.1 °F - 61.0 °F 75% 29.94 in 10.0 mi SSW 5.8 mph - N/A   Clear
6:52 AM 70.0 °F - 61.0 °F 73% 29.96 in 10.0 mi SSW 5.8 mph - N/A   Clear
7:52 AM 70.0 °F - 62.1 °F 76% 29.96 in 10.0 mi SSW 8.1 mph - N/A   Partly Cloudy
8:52 AM 73.9 °F - 62.1 °F 66% 29.96 in 10.0 mi SW 6.9 mph - N/A   Clear
9:52 AM 79.0 °F - 62.1 °F 56% 29.97 in 10.0 mi SW 8.1 mph - N/A   Clear
10:52 AM 84.0 °F 84.9 °F 63.0 °F 49% 29.97 in 10.0 mi West 10.4 mph - N/A   Clear
11:52 AM 87.1 °F 88.3 °F 64.0 °F 46% 29.97 in 10.0 mi WNW 10.4 mph - N/A   Clear
12:52 PM 90.0 °F 91.3 °F 64.0 °F 42% 29.96 in 10.0 mi West 13.8 mph 20.7 mph N/A   Partly Cloudy
1:52 PM 93.0 °F 93.0 °F 61.0 °F 34% 29.96 in 10.0 mi West 16.1 mph 21.9 mph N/A   Partly Cloudy
2:52 PM 91.9 °F 93.3 °F 64.0 °F 39% 29.95 in 10.0 mi West 16.1 mph 21.9 mph N/A   Scattered Clouds
3:52 PM 91.9 °F 94.1 °F 64.9 °F 41% 29.96 in 10.0 mi WNW 12.7 mph 21.9 mph N/A   Scattered Clouds
4:52 PM 88.0 °F 90.3 °F 66.0 °F 48% 29.97 in 10.0 mi NW 18.4 mph - N/A   Scattered Clouds
5:52 PM 84.9 °F 87.1 °F 66.0 °F 53% 29.99 in 10.0 mi NW 15.0 mph 24.2 mph N/A   Partly Cloudy
6:52 PM 82.0 °F 83.1 °F 63.0 °F 52% 30.01 in 10.0 mi NW 13.8 mph - N/A   Partly Cloudy
7:52 PM 79.0 °F - 62.1 °F 56% 30.03 in 10.0 mi NW 12.7 mph - N/A   Clear
8:52 PM 75.9 °F - 61.0 °F 60% 30.05 in 10.0 mi NW 12.7 mph - N/A   Clear
9:52 PM 73.0 °F - 57.9 °F 59% 30.06 in 10.0 mi NNW 15.0 mph - N/A   Clear
10:52 PM 69.1 °F - 57.0 °F 65% 30.09 in 10.0 mi NNW 6.9 mph - N/A   Clear
11:52 PM 66.9 °F - 55.9 °F 68% 30.10 in 10.0 mi North 10.4 mph - N/A   Clear